| time (UTC) | temp F | wind direction | speed MPH | gust MPH | rain 1hr in | rain 24hr in | rain mn in | humidity % | barometer mb |
| 20260831194537 | 90 | 71 | 3.0 | 6.0 | 0.00 | 0.00 | 0.00 | 52 | 1017.9 |
| 20260831193041 | 91 | 286 | 1.0 | 6.0 | 0.00 | 0.00 | 0.00 | 50 | 1017.9 |
| 20260831191533 | 91 | 43 | 2.0 | 12.0 | 0.00 | 0.00 | 0.00 | 49 | 1017.9 |
| 20260831190052 | 92 | 222 | 2.0 | 11.0 | 0.00 | 0.00 | 0.00 | 48 | 1018.3 |
| 20260831184531 | 92 | 236 | 3.0 | 7.0 | 0.00 | 0.00 | 0.00 | 49 | 1018.4 |
| 20260831183028 | 92 | 281 | 2.0 | 9.0 | 0.00 | 0.00 | 0.00 | 53 | 1018.4 |
| 20260831181527 | 91 | 289 | 1.0 | 8.0 | 0.00 | 0.00 | 0.00 | 55 | 1018.6 |
| 20260831180024 | 91 | 277 | 3.0 | 10.0 | 0.00 | 0.00 | 0.00 | 52 | 1018.7 |
| 20260831174524 | 92 | 254 | 1.0 | 3.0 | 0.00 | 0.00 | 0.00 | 50 | 1018.7 |
| 20260831173023 | 89 | 277 | 3.0 | 9.0 | 0.00 | 0.00 | 0.00 | 56 | 1018.9 |
| 20260831171519 | 89 | 339 | 6.0 | 10.0 | 0.00 | 0.00 | 0.00 | 57 | 1019.0 |
| 20260831170019 | 89 | 46 | 1.0 | 8.0 | 0.00 | 0.00 | 0.00 | 58 | 1019.3 |
| 20260831164519 | 89 | 35 | 2.0 | 6.0 | 0.00 | 0.00 | 0.00 | 55 | 1019.4 |
| 20260831163017 | 88 | 290 | 2.0 | 8.0 | 0.00 | 0.00 | 0.00 | 59 | 1019.5 |
| 20260831161510 | 88 | 30 | 3.0 | 9.0 | 0.00 | 0.00 | 0.00 | 61 | 1019.5 |
| 20260831160012 | 86 | 332 | 1.0 | 6.0 | 0.00 | 0.00 | 0.00 | 63 | 1019.6 |
| 20260831154516 | 87 | 78 | 1.0 | 8.0 | 0.00 | 0.00 | 0.00 | 63 | 1019.7 |
| 20260831153002 | 86 | 38 | 5.0 | 8.0 | 0.00 | 0.00 | 0.00 | 63 | 1019.7 |
| 20260831151610 | 86 | 78 | 0.0 | 3.0 | 0.00 | 0.00 | 0.00 | 67 | 1019.6 |
| 20260831150059 | 85 | 59 | 1.0 | 5.0 | 0.00 | 0.00 | 0.00 | 69 | 1019.7 |
| 20260831144551 | 85 | 122 | 0.0 | 4.0 | 0.00 | 0.00 | 0.00 | 70 | 1019.9 |
| 20260831143047 | 83 | 222 | 0.0 | 4.0 | 0.00 | 0.00 | 0.00 | 72 | 1019.7 |
| 20260831141547 | 82 | 331 | 1.0 | 3.0 | 0.00 | 0.00 | 0.00 | 75 | 1019.6 |
| 20260831140038 | 81 | 269 | 1.0 | 3.0 | 0.00 | 0.00 | 0.00 | 77 | 1019.6 |
| 20260831134533 | 80 | 311 | 0.0 | 3.0 | 0.00 | 0.00 | 0.00 | 79 | 1019.8 |
| 20260831133028 | 79 | 297 | 0.0 | 3.0 | 0.00 | 0.00 | 0.00 | 80 | 1019.8 |
| 20260831131524 | 78 | 271 | 1.0 | 5.0 | 0.00 | 0.00 | 0.00 | 82 | 1019.8 |
| 20260831130019 | 76 | 306 | 3.0 | 5.0 | 0.00 | 0.00 | 0.00 | 85 | 1019.9 |
| 20260831124516 | 75 | 322 | 0.0 | 3.0 | 0.00 | 0.00 | 0.00 | 86 | 1019.9 |
| 20260831123010 | 75 | 243 | 1.0 | 3.0 | 0.00 | 0.00 | 0.00 | 87 | 1020.0 |
| 20260831121506 | 73 | 85 | 1.0 | 2.0 | 0.00 | 0.00 | 0.00 | 89 | 1019.8 |
| 20260831120001 | 73 | 86 | 0.0 | 2.0 | 0.00 | 0.00 | 0.00 | 90 | 1019.7 |
| 20260831114602 | 71 | 88 | 0.0 | 1.0 | 0.00 | 0.00 | 0.00 | 92 | 1019.7 |
| 20260831113105 | 71 | 88 | 0.0 | 1.0 | 0.00 | 0.00 | 0.00 | 93 | 1019.6 |
| 20260831111550 | 70 | 88 | 0.0 | 1.0 | 0.00 | 0.00 | 0.00 | 94 | 1019.6 |
| 20260831110048 | 70 | 88 | 0.0 | 1.0 | 0.00 | 0.00 | 0.00 | 94 | 1019.4 |
| 20260831104555 | 70 | 88 | 0.0 | 2.0 | 0.00 | 0.00 | 0.00 | 94 | 1019.3 |
| 20260831103045 | 70 | 88 | 0.0 | 1.0 | 0.00 | 0.00 | 0.00 | 94 | 1019.2 |
| 20260831101547 | 70 | 88 | 1.0 | 3.0 | 0.00 | 0.00 | 0.00 | 94 | 1019.1 |
| 20260831100046 | 70 | 115 | 0.0 | 0.0 | 0.00 | 0.00 | 0.00 | 93 | 1019.0 |
| 20260831094552 | 70 | 115 | 0.0 | 2.0 | 0.00 | 0.00 | 0.00 | 93 | 1019.0 |
| 20260831093106 | 70 | 147 | 2.0 | 3.0 | 0.00 | 0.00 | 0.00 | 92 | 1019.1 |
| 20260831091547 | 71 | 148 | 0.0 | 3.0 | 0.00 | 0.00 | 0.00 | 91 | 1019.1 |
| 20260831090037 | 71 | 148 | 0.0 | 0.0 | 0.00 | 0.00 | 0.00 | 90 | 1018.9 |
| 20260831084622 | 72 | 148 | 0.0 | 1.0 | 0.00 | 0.00 | 0.00 | 90 | 1018.9 |
| 20260831083036 | 72 | 148 | 0.0 | 1.0 | 0.00 | 0.00 | 0.00 | 90 | 1019.1 |
| 20260831081534 | 72 | 148 | 0.0 | 2.0 | 0.00 | 0.00 | 0.00 | 90 | 1019.1 |
| 20260831080042 | 72 | 148 | 0.0 | 2.0 | 0.00 | 0.00 | 0.00 | 90 | 1019.0 |
| 20260831074544 | 72 | 148 | 0.0 | 1.0 | 0.00 | 0.00 | 0.00 | 90 | 1019.0 |
| 20260831073034 | 72 | 148 | 0.0 | 1.0 | 0.00 | 0.00 | 0.00 | 90 | 1019.0 |
| 20260831071537 | 72 | 148 | 0.0 | 3.0 | 0.00 | 0.00 | 0.00 | 89 | 1019.0 |
| 20260831070032 | 72 | 148 | 3.0 | 4.0 | 0.00 | 0.00 | 0.00 | 88 | 1019.1 |
| 20260831064532 | 72 | 169 | 2.0 | 4.0 | 0.00 | 0.00 | 0.00 | 88 | 1019.2 |
| 20260831063025 | 72 | 169 | 1.0 | 3.0 | 0.00 | 0.00 | 0.00 | 87 | 1019.3 |
| 20260831061525 | 73 | 169 | 1.0 | 3.0 | 0.00 | 0.00 | 0.00 | 86 | 1019.5 |
| 20260831060023 | 73 | 170 | 0.0 | 4.0 | 0.00 | 0.00 | 0.00 | 86 | 1019.4 |
| 20260831054522 | 73 | 170 | 0.0 | 2.0 | 0.00 | 0.00 | 0.00 | 85 | 1019.5 |
| 20260831053021 | 74 | 171 | 0.0 | 4.0 | 0.00 | 0.00 | 0.00 | 84 | 1019.5 |
| 20260831051526 | 74 | 178 | 0.0 | 2.0 | 0.00 | 0.00 | 0.00 | 83 | 1019.5 |
| 20260831050015 | 75 | 180 | 2.0 | 3.0 | 0.00 | 0.00 | 0.00 | 82 | 1019.6 |
| 20260831044516 | 75 | 189 | 0.0 | 2.0 | 0.00 | 0.00 | 0.00 | 81 | 1019.7 |
| 20260831043010 | 76 | 192 | 0.0 | 0.0 | 0.00 | 0.00 | 0.00 | 80 | 1019.8 |
| 20260831041511 | 76 | 211 | 0.0 | 3.0 | 0.00 | 0.00 | 0.00 | 79 | 1019.8 |
| 20260831040018 | 77 | 210 | 0.0 | 3.0 | 0.00 | 0.00 | 0.00 | 78 | 1019.9 |
| 20260831034507 | 77 | 222 | 0.0 | 4.0 | 0.00 | 0.00 | 0.00 | 77 | 1019.9 |
| 20260831033008 | 77 | 206 | 2.0 | 6.0 | 0.00 | 0.00 | 0.00 | 76 | 1019.9 |
| 20260831031508 | 78 | 191 | 1.0 | 6.0 | 0.00 | 0.00 | 0.00 | 76 | 1020.0 |
| 20260831030004 | 78 | 212 | 3.0 | 9.0 | 0.00 | 0.00 | 0.00 | 76 | 1020.1 |
| 20260831024507 | 78 | 213 | 1.0 | 6.0 | 0.00 | 0.00 | 0.00 | 75 | 1020.1 |
| 20260831023003 | 78 | 175 | 0.0 | 2.0 | 0.00 | 0.00 | 0.00 | 74 | 1020.2 |
| 20260831021503 | 78 | 156 | 0.0 | 0.0 | 0.00 | 0.00 | 0.00 | 72 | 1020.2 |
| 20260831020003 | 79 | 157 | 0.0 | 2.0 | 0.00 | 0.00 | 0.00 | 71 | 1020.0 |
| 20260831014504 | 79 | 155 | 0.0 | 5.0 | 0.00 | 0.00 | 0.00 | 70 | 1019.9 |
| 20260831013005 | 80 | 152 | 0.0 | 7.0 | 0.00 | 0.00 | 0.00 | 69 | 1019.8 |
| 20260831011505 | 81 | 205 | 0.0 | 0.0 | 0.00 | 0.00 | 0.00 | 67 | 1019.6 |
| 20260831010001 | 82 | 205 | 0.0 | 0.0 | 0.00 | 0.00 | 0.00 | 66 | 1019.4 |
| 20260831004603 | 82 | 209 | 0.0 | 3.0 | 0.00 | 0.00 | 0.00 | 64 | 1019.4 |
| 20260831003059 | 83 | 194 | 0.0 | 0.0 | 0.00 | 0.00 | 0.00 | 64 | 1019.4 |
| 20260831001620 | 84 | 194 | 0.0 | 0.0 | 0.00 | 0.00 | 0.00 | 62 | 1019.1 |
| 20260831000059 | 85 | 192 | 0.0 | 1.0 | 0.00 | 0.00 | 0.00 | 60 | 1018.9 |
| 20260830234558 | 86 | 205 | 1.0 | 3.0 | 0.00 | 0.00 | 0.00 | 59 | 1019.1 |
| 20260830233118 | 87 | 198 | 1.0 | 5.0 | 0.00 | 0.00 | 0.00 | 57 | 1019.0 |
| 20260830231559 | 88 | 196 | 1.0 | 4.0 | 0.00 | 0.00 | 0.00 | 55 | 1018.9 |
| 20260830230109 | 89 | 201 | 1.0 | 8.0 | 0.00 | 0.00 | 0.00 | 53 | 1018.9 |
| 20260830224556 | 89 | 192 | 1.0 | 4.0 | 0.00 | 0.00 | 0.00 | 52 | 1019.0 |
| 20260830223055 | 90 | 209 | 2.0 | 7.0 | 0.00 | 0.00 | 0.00 | 52 | 1019.0 |
| 20260830221555 | 90 | 211 | 0.0 | 5.0 | 0.00 | 0.00 | 0.00 | 51 | 1018.9 |
| 20260830220054 | 90 | 236 | 6.0 | 11.0 | 0.00 | 0.00 | 0.00 | 50 | 1018.9 |
| 20260830214554 | 90 | 258 | 5.0 | 8.0 | 0.00 | 0.00 | 0.00 | 50 | 1018.9 |
| 20260830213050 | 90 | 279 | 3.0 | 9.0 | 0.00 | 0.00 | 0.00 | 52 | 1018.8 |
| 20260830211554 | 89 | 214 | 2.0 | 10.0 | 0.00 | 0.00 | 0.00 | 53 | 1019.0 |
| 20260830210059 | 90 | 159 | 2.0 | 5.0 | 0.00 | 0.00 | 0.00 | 52 | 1018.9 |
| 20260830204546 | 89 | 225 | 3.0 | 10.0 | 0.00 | 0.00 | 0.00 | 52 | 1019.0 |
| 20260830203045 | 89 | 138 | 3.0 | 8.0 | 0.00 | 0.00 | 0.00 | 52 | 1019.2 |
| 20260830201542 | 88 | 202 | 6.0 | 10.0 | 0.00 | 0.00 | 0.00 | 54 | 1019.3 |
| 20260830200041 | 87 | 239 | 3.0 | 13.0 | 0.00 | 0.00 | 0.00 | 56 | 1019.5 |